Regional Weather Roundup
Issued by NWS

Home | Current Version | Previous Version | Text Only | Print | Product List | Glossary Off
Versions: 1 2 3 4 5 6 7 8 9 10 11 12 13 14 15 16 17 18 19 20 21 22 23 24 25 26 27 28 29 30 31 32 33 34 35 36 37 38 39 40 41 42 43 44 45 46 47 48 49 50

000
ASUS45 KSLC 271910
RWRUT

UTAH REGIONAL WEATHER ROUNDUP
NATIONAL WEATHER SERVICE SALT LAKE CITY UT
1200 PM MST THU NOV 27 2014

UTZ001>011-023>025-272000-

NORTHERN UTAH

CITY           SKY/WX    TMP DP  RH WIND       PRES   REMARKS
BRIGHAM CITY   CLOUDY    49  32  52 W5        30.28F
HILL AFB       CLOUDY    49  28  43 E6        30.28F
LOGAN          SUNNY     44  36  73 W5        30.27F
OGDEN          CLOUDY    50  30  46 CALM      30.27F
PROVO AIRPORT  CLOUDY    45  34  65 CALM      30.33F
SALT LAKE CITY CLOUDY    56  23  27 S7        30.26F
VERNAL         MOSUNNY   47  24  40 CALM      30.36F
WENDOVER       MOSUNNY   46  28  49 E6        30.27F
HEBER CITY     CLOUDY    41  30  65 CALM      30.34F
WEST JORDAN    SUNNY     55  30  38 S24       30.27F

$$

UTZ012>022-026-027-272000-

SOUTHERN/CENTRAL UTAH

CITY           SKY/WX    TMP DP  RH WIND       PRES   REMARKS
BLANDING       SUNNY     47  24  40 CALM      30.51F
BRYCE CANYON   MOSUNNY   51  14  22 SE6       30.46F
CEDAR CITY     PTSUNNY   59  17  19 CALM      30.35F
DELTA          CLOUDY    48  24  39 E6        30.32F
MILFORD        NOT AVBL
MOAB/CYNLANDS  SUNNY     50  24  36 E5        30.39F
PRICE          MOSUNNY   47  24  40 E8        30.42F
ST GEORGE      CLOUDY    52  19  28 CALM      30.35F
KANAB          SUNNY     59  19  21 S7        30.40F

$$

REGIONAL REPORTS     COLORADO/ARIZONA

CITY           SKY/WX    TMP DP  RH WIND       PRES   REMARKS
CRAIG, CO      CLOUDY    44  26  49 E10       30.33F
GRAND JUNCTION SUNNY     48  27  44 CALM      30.41F
RIFLE          SUNNY     40  27  59 CALM      30.43F
MONTROSE       SUNNY     49  25  39 NW3       30.43F
CORTEZ         SUNNY     53  21  28 SW9       30.43F
PAGE, AZ       SUNNY     52  19  27 N6        30.41F
GRAND CANYON   SUNNY     63   7  11 SE6       30.43F
KINGMAN        SUNNY     70  15  12 N5        30.28F
FLAGSTAFF      SUNNY     58  15  18 NE7       30.45F

$$

REGIONAL REPORTS    NEVADA/IDAHO/WYOMING

CITY           SKY/WX    TMP DP  RH WIND       PRES   REMARKS
LAS VEGAS, NV  PTSUNNY   63  20  19 SW3       30.24F
ELY            CLOUDY    53  16  23 VRB3      30.35F
ELKO           CLOUDY    50  31  48 CALM      30.28F
POCATELLO, ID  SUNNY     58  29  33 SW15      30.21F
BURLEY         MOSUNNY   62  31  31 SW8       30.19F
EVANSTON, WY   PTSUNNY   51  22  31 S13G20    30.32F
ROCK SPRINGS   CLOUDY    44  21  40 W8        30.30F

$$



USA.gov is the U.S. government's official web portal to all federal, state and local government web resources and services.